Time,TemperatureF,DewpointF,PressureIn,WindDirection,WindDirectionDegrees,WindSpeedMPH,WindSpeedGustMPH,Humidity,HourlyPrecipIn,Conditions,Clouds,dailyrainin,SoftwareType,DateUTC
2013-02-08 00:00:00,37.3,28.8,30.13,NE,45,0.4,0.4,71,0.00,,,0.00,WUHU216HW,2013-02-08 05:00:00,
2013-02-08 00:01:00,37.3,28.8,30.14,NE,45,0.4,0.4,71,0.00,,,0.00,WUHU216HW,2013-02-08 05:01:00,
2013-02-08 00:06:00,37.3,28.8,30.14,ENE,68,0.4,1.6,71,0.00,,,0.00,WUHU216HW,2013-02-08 05:06:00,
2013-02-08 00:11:00,37.3,28.8,30.14,East,90,0.0,1.8,71,0.00,,,0.00,WUHU216HW,2013-02-08 05:11:00,
2013-02-08 00:16:00,37.4,29.0,30.14,East,90,0.0,1.8,71,0.00,,,0.00,WUHU216HW,2013-02-08 05:16:00,
2013-02-08 00:21:00,37.4,29.0,30.14,East,90,0.0,0.0,71,0.00,,,0.00,WUHU216HW,2013-02-08 05:21:00,
2013-02-08 00:30:00,37.3,29.7,30.12,ENE,68,0.2,0.2,74,0.00,,,0.00,WUHU216HW,2013-02-08 05:30:00,
2013-02-08 00:35:00,37.3,29.7,30.12,ENE,68,0.0,0.2,74,0.00,,,0.00,WUHU216HW,2013-02-08 05:35:00,
2013-02-08 00:40:00,37.1,29.5,30.11,NNE,23,0.0,0.7,74,0.00,,,0.00,WUHU216HW,2013-02-08 05:40:00,
2013-02-08 00:45:00,37.1,29.5,30.12,NNE,23,0.0,0.7,74,0.00,,,0.00,WUHU216HW,2013-02-08 05:45:00,
2013-02-08 00:50:00,37.1,29.5,30.12,NNE,23,0.0,0.0,74,0.00,,,0.00,WUHU216HW,2013-02-08 05:50:00,
2013-02-08 00:55:00,37.1,29.5,30.11,NNE,23,0.0,0.0,74,0.00,,,0.00,WUHU216HW,2013-02-08 05:55:00,
2013-02-08 01:00:00,36.9,29.7,30.11,NNE,23,0.0,0.0,75,0.00,,,0.00,WUHU216HW,2013-02-08 06:00:00,
2013-02-08 01:05:00,36.7,30.2,30.10,SW,225,0.4,0.4,77,0.00,,,0.00,WUHU216HW,2013-02-08 06:05:00,
2013-02-08 01:10:00,36.4,29.8,30.10,SSW,203,0.2,0.9,77,0.00,,,0.00,WUHU216HW,2013-02-08 06:10:00,
2013-02-08 01:15:00,36.2,29.4,30.10,SW,225,1.3,1.6,76,0.00,,,0.00,WUHU216HW,2013-02-08 06:15:00,
2013-02-08 01:20:00,35.8,29.0,30.10,SW,225,1.8,1.8,76,0.00,,,0.00,WUHU216HW,2013-02-08 06:20:00,
2013-02-08 01:25:00,35.8,29.0,30.10,SW,225,1.8,1.8,76,0.00,,,0.00,WUHU216HW,2013-02-08 06:25:00,
2013-02-08 01:30:00,34.9,28.7,30.10,SW,225,0.2,1.1,78,0.00,,,0.00,WUHU216HW,2013-02-08 06:30:00,
2013-02-08 01:35:00,34.7,28.5,30.10,SW,225,0.0,1.6,78,0.00,,,0.00,WUHU216HW,2013-02-08 06:35:00,
2013-02-08 01:40:00,34.7,28.5,30.10,SW,225,0.0,1.6,78,0.00,,,0.00,WUHU216HW,2013-02-08 06:40:00,
2013-02-08 01:49:00,34.0,28.4,30.09,SW,225,0.4,1.1,80,0.00,,,0.00,WUHU216HW,2013-02-08 06:49:00,
2013-02-08 01:55:00,34.0,28.4,30.09,SW,225,0.0,1.1,80,0.00,,,0.00,WUHU216HW,2013-02-08 06:55:00,
2013-02-08 02:00:00,33.8,28.3,30.09,SW,225,0.0,0.7,80,0.00,,,0.00,WUHU216HW,2013-02-08 07:00:00,
2013-02-08 02:05:00,33.8,28.3,30.09,SW,225,0.0,0.7,80,0.00,,,0.00,WUHU216HW,2013-02-08 07:05:00,
2013-02-08 02:10:00,33.8,28.3,30.09,SW,225,0.0,0.0,80,0.00,,,0.00,WUHU216HW,2013-02-08 07:10:00,
2013-02-08 02:32:00,33.5,28.5,30.08,SSE,158,0.4,0.4,82,0.00,,,0.00,WUHU216HW,2013-02-08 07:32:00,
2013-02-08 02:37:00,33.5,28.5,30.08,SSE,158,0.4,0.4,82,0.00,,,0.00,WUHU216HW,2013-02-08 07:37:00,
2013-02-08 03:00:00,33.1,27.9,30.06,South,180,0.4,0.4,81,0.00,,,0.00,WUHU216HW,2013-02-08 08:00:00,
2013-02-08 03:05:00,33.1,27.9,30.06,South,180,0.4,1.3,81,0.00,,,0.00,WUHU216HW,2013-02-08 08:05:00,
2013-02-08 03:10:00,32.9,28.0,30.06,South,180,0.4,1.3,82,0.00,,,0.00,WUHU216HW,2013-02-08 08:10:00,
2013-02-08 03:15:00,32.9,27.7,30.06,South,180,0.9,0.9,81,0.00,,,0.00,WUHU216HW,2013-02-08 08:15:00,
2013-02-08 03:20:00,32.9,27.7,30.06,South,180,0.9,0.9,81,0.00,,,0.00,WUHU216HW,2013-02-08 08:20:00,
2013-02-08 03:31:00,32.8,28.2,30.05,South,180,0.0,0.0,83,0.00,,,0.00,WUHU216HW,2013-02-08 08:31:00,
2013-02-08 03:36:00,32.8,28.4,30.05,South,180,0.2,0.2,84,0.00,,,0.00,WUHU216HW,2013-02-08 08:36:00,
2013-02-08 03:41:00,32.8,28.4,30.04,South,180,0.2,0.4,84,0.00,,,0.00,WUHU216HW,2013-02-08 08:41:00,
2013-02-08 03:46:00,32.8,28.4,30.04,South,180,0.0,0.4,84,0.00,,,0.00,WUHU216HW,2013-02-08 08:46:00,
2013-02-08 03:51:00,32.8,28.4,30.04,South,180,0.4,0.4,84,0.00,,,0.00,WUHU216HW,2013-02-08 08:51:00,
2013-02-08 03:56:00,32.8,28.4,30.04,South,180,0.4,0.4,84,0.00,,,0.00,WUHU216HW,2013-02-08 08:56:00,
2013-02-08 04:01:00,32.8,28.4,30.04,South,180,0.0,0.4,84,0.00,,,0.00,WUHU216HW,2013-02-08 09:01:00,
2013-02-08 04:06:00,32.8,28.4,30.04,South,180,0.0,0.4,84,0.00,,,0.00,WUHU216HW,2013-02-08 09:06:00,
2013-02-08 04:30:00,32.8,28.7,30.03,South,180,0.0,0.0,85,0.00,,,0.00,WUHU216HW,2013-02-08 09:30:00,
2013-02-08 04:35:00,32.8,28.7,30.03,South,180,0.0,0.0,85,0.00,,,0.00,WUHU216HW,2013-02-08 09:35:00,
2013-02-08 04:40:00,32.8,28.7,30.03,South,180,0.0,0.0,85,0.00,,,0.00,WUHU216HW,2013-02-08 09:40:00,
2013-02-08 05:00:00,32.8,29.0,30.02,South,180,0.0,0.0,86,0.00,,,0.00,WUHU216HW,2013-02-08 10:00:00,
2013-02-08 05:05:00,32.8,28.7,30.02,South,180,0.0,0.0,85,0.00,,,0.00,WUHU216HW,2013-02-08 10:05:00,
2013-02-08 05:10:00,32.8,28.7,30.02,South,180,0.0,0.0,85,0.00,,,0.00,WUHU216HW,2013-02-08 10:10:00,
2013-02-08 05:15:00,32.8,28.7,30.02,South,180,0.0,0.0,85,0.00,,,0.00,WUHU216HW,2013-02-08 10:15:00,
2013-02-08 05:20:00,32.8,28.7,30.01,South,180,0.0,0.0,85,0.00,,,0.00,WUHU216HW,2013-02-08 10:20:00,
2013-02-08 05:25:00,32.8,29.0,30.01,South,180,0.0,0.0,86,0.00,,,0.00,WUHU216HW,2013-02-08 10:25:00,
2013-02-08 05:30:00,32.8,29.0,30.01,South,180,0.0,0.0,86,0.00,,,0.00,WUHU216HW,2013-02-08 10:30:00,
2013-02-08 05:35:00,32.8,28.2,30.00,South,180,0.0,0.0,83,0.00,,,0.00,WUHU216HW,2013-02-08 10:35:00,
2013-02-08 05:40:00,32.8,28.2,30.00,South,180,0.0,0.0,83,0.00,,,0.00,WUHU216HW,2013-02-08 10:40:00,
2013-02-08 05:45:00,32.8,28.2,30.00,South,180,0.0,0.0,83,0.00,,,0.00,WUHU216HW,2013-02-08 10:45:00,
2013-02-08 05:54:00,32.6,28.5,30.00,South,180,0.0,0.0,85,0.00,,,0.00,WUHU216HW,2013-02-08 10:54:00,
2013-02-08 05:59:00,32.6,28.5,30.00,South,180,0.0,0.0,85,0.00,,,0.00,WUHU216HW,2013-02-08 10:59:00,
2013-02-08 06:04:00,32.6,28.9,30.00,South,180,0.0,0.0,86,0.00,,,0.00,WUHU216HW,2013-02-08 11:04:00,
2013-02-08 06:09:00,32.6,29.2,30.00,South,180,0.0,0.0,87,0.00,,,0.00,WUHU216HW,2013-02-08 11:09:00,
2013-02-08 06:14:00,32.8,29.4,30.00,South,180,0.2,0.2,87,0.00,,,0.00,WUHU216HW,2013-02-08 11:14:00,
2013-02-08 06:19:00,32.8,29.0,29.99,South,180,0.7,0.9,86,0.00,,,0.00,WUHU216HW,2013-02-08 11:19:00,
2013-02-08 06:24:00,32.8,29.0,29.99,South,180,0.7,0.9,86,0.00,,,0.00,WUHU216HW,2013-02-08 11:24:00,
2013-02-08 06:32:00,32.8,29.4,29.99,South,180,0.4,0.4,87,0.00,,,0.00,WUHU216HW,2013-02-08 11:32:00,
2013-02-08 06:37:00,32.8,29.6,29.98,South,180,0.4,0.4,88,0.00,,,0.00,WUHU216HW,2013-02-08 11:37:00,
2013-02-08 06:42:00,32.8,29.4,29.98,South,180,0.4,0.7,87,0.00,,,0.00,WUHU216HW,2013-02-08 11:42:00,
2013-02-08 06:47:00,32.8,29.4,29.98,South,180,0.0,0.7,87,0.00,,,0.00,WUHU216HW,2013-02-08 11:47:00,
2013-02-08 06:52:00,32.8,29.4,29.98,South,180,0.0,0.4,87,0.00,,,0.00,WUHU216HW,2013-02-08 11:52:00,
2013-02-08 06:57:00,32.8,29.4,29.98,South,180,0.0,0.0,87,0.00,,,0.00,WUHU216HW,2013-02-08 11:57:00,
2013-02-08 07:02:00,32.8,29.6,29.97,South,180,0.0,0.0,88,0.00,,,0.00,WUHU216HW,2013-02-08 12:02:00,
2013-02-08 07:07:00,32.8,29.0,29.98,South,180,0.0,0.4,86,0.00,,,0.00,WUHU216HW,2013-02-08 12:07:00,
2013-02-08 07:12:00,32.8,29.0,29.98,South,180,0.0,0.4,86,0.00,,,0.00,WUHU216HW,2013-02-08 12:12:00,
2013-02-08 07:33:00,32.8,29.0,29.98,South,180,0.0,0.0,86,0.00,,,0.00,WUHU216HW,2013-02-08 12:33:00,
2013-02-08 07:38:00,32.8,29.0,29.98,South,180,0.0,0.0,86,0.00,,,0.00,WUHU216HW,2013-02-08 12:38:00,
2013-02-08 07:43:00,32.8,29.0,29.98,South,180,0.0,0.0,86,0.00,,,0.00,WUHU216HW,2013-02-08 12:43:00,
2013-02-08 08:00:00,33.1,29.9,29.97,South,180,0.4,0.4,88,0.00,,,0.00,WUHU216HW,2013-02-08 13:00:00,
2013-02-08 08:05:00,33.1,29.9,29.97,South,180,0.4,0.4,88,0.00,,,0.00,WUHU216HW,2013-02-08 13:05:00,
2013-02-08 08:30:00,33.7,29.8,29.95,South,180,0.0,0.0,86,0.00,,,0.00,WUHU216HW,2013-02-08 13:30:00,
2013-02-08 08:35:00,33.7,29.8,29.95,South,180,0.0,0.0,86,0.00,,,0.00,WUHU216HW,2013-02-08 13:35:00,
2013-02-08 08:40:00,33.7,29.8,29.95,South,180,0.0,0.0,86,0.00,,,0.00,WUHU216HW,2013-02-08 13:40:00,
2013-02-08 09:00:00,34.2,30.3,29.93,South,180,0.0,0.0,86,0.00,,,0.00,WUHU216HW,2013-02-08 14:00:00,
2013-02-08 09:05:00,34.0,30.2,29.93,South,180,0.0,0.0,86,0.00,,,0.00,WUHU216HW,2013-02-08 14:05:00,
2013-02-08 09:30:00,36.0,32.4,29.93,South,180,0.0,0.0,87,0.00,,,0.00,WUHU216HW,2013-02-08 14:30:00,
2013-02-08 09:35:00,36.0,32.1,29.92,South,180,0.0,0.0,86,0.00,,,0.00,WUHU216HW,2013-02-08 14:35:00,
2013-02-08 09:40:00,36.0,32.1,29.92,South,180,0.0,0.0,86,0.00,,,0.00,WUHU216HW,2013-02-08 14:40:00,
2013-02-08 10:00:00,34.6,30.7,29.91,South,180,0.0,0.0,86,0.00,,,0.00,WUHU216HW,2013-02-08 15:00:00,
2013-02-08 10:05:00,34.7,31.1,29.91,South,180,0.0,0.0,87,0.00,,,0.00,WUHU216HW,2013-02-08 15:05:00,
2013-02-08 10:10:00,34.9,31.3,29.90,South,180,0.2,0.9,87,0.00,,,0.00,WUHU216HW,2013-02-08 15:10:00,
2013-02-08 10:15:00,34.9,31.3,29.90,South,180,0.2,0.9,87,0.00,,,0.00,WUHU216HW,2013-02-08 15:15:00,
2013-02-08 10:30:00,36.0,32.4,29.90,South,180,0.0,0.0,87,0.00,,,0.00,WUHU216HW,2013-02-08 15:30:00,
2013-02-08 10:35:00,36.0,32.4,29.90,South,180,0.0,0.0,87,0.00,,,0.00,WUHU216HW,2013-02-08 15:35:00,
2013-02-08 10:40:00,36.4,32.2,29.90,South,180,0.0,0.0,85,0.00,,,0.00,WUHU216HW,2013-02-08 15:40:00,
2013-02-08 10:45:00,36.4,32.2,29.90,South,180,0.0,0.0,85,0.00,,,0.00,WUHU216HW,2013-02-08 15:45:00,
2013-02-08 11:00:00,38.3,33.9,29.88,North,0,0.4,0.4,84,0.00,,,0.00,WUHU216HW,2013-02-08 16:00:00,
2013-02-08 11:05:00,38.5,34.1,29.89,South,180,0.2,0.4,84,0.00,,,0.00,WUHU216HW,2013-02-08 16:05:00,
2013-02-08 11:10:00,38.5,34.1,29.89,South,180,0.2,0.4,84,0.00,,,0.00,WUHU216HW,2013-02-08 16:10:00,
2013-02-08 11:30:00,36.0,31.9,29.88,WSW,248,0.4,0.4,85,0.01,,,0.01,WUHU216HW,2013-02-08 16:30:00,
2013-02-08 11:35:00,36.4,32.5,29.87,SE,135,0.0,0.9,86,0.01,,,0.01,WUHU216HW,2013-02-08 16:35:00,
2013-02-08 11:40:00,36.4,32.2,29.87,WNW,293,1.1,1.1,85,0.02,,,0.02,WUHU216HW,2013-02-08 16:40:00,
2013-02-08 11:45:00,36.2,32.0,29.87,WNW,293,0.9,1.3,85,0.02,,,0.02,WUHU216HW,2013-02-08 16:45:00,
2013-02-08 11:50:00,36.2,32.3,29.87,WSW,248,1.1,2.0,86,0.03,,,0.03,WUHU216HW,2013-02-08 16:50:00,
2013-02-08 11:55:00,36.4,32.5,29.87,NW,315,0.0,2.0,86,0.03,,,0.03,WUHU216HW,2013-02-08 16:55:00,
2013-02-08 12:00:00,37.1,32.9,29.87,West,270,0.4,2.0,85,0.05,,,0.05,WUHU216HW,2013-02-08 17:00:00,
2013-02-08 12:05:00,37.1,32.9,29.87,WNW,293,0.4,0.7,85,0.04,,,0.05,WUHU216HW,2013-02-08 17:05:00,
2013-02-08 12:10:00,37.1,32.9,29.87,WNW,293,0.4,0.7,85,0.04,,,0.05,WUHU216HW,2013-02-08 17:10:00,
2013-02-08 12:30:00,40.3,35.6,29.85,SE,135,1.3,1.6,83,0.06,,,0.07,WUHU216HW,2013-02-08 17:30:00,
2013-02-08 12:35:00,40.9,36.0,29.85,SE,135,1.1,1.8,83,0.06,,,0.07,WUHU216HW,2013-02-08 17:35:00,
2013-02-08 12:40:00,40.7,35.3,29.84,ENE,68,0.9,1.8,81,0.05,,,0.07,WUHU216HW,2013-02-08 17:40:00,
2013-02-08 12:45:00,40.3,34.9,29.84,NNE,23,0.0,1.8,81,0.05,,,0.07,WUHU216HW,2013-02-08 17:45:00,
2013-02-08 12:50:00,40.0,34.3,29.84,North,0,0.0,1.6,80,0.05,,,0.08,WUHU216HW,2013-02-08 17:50:00,
2013-02-08 12:55:00,39.8,34.1,29.83,WSW,248,0.0,0.7,80,0.03,,,0.08,WUHU216HW,2013-02-08 17:55:00,
2013-02-08 13:00:00,40.1,34.7,29.83,WSW,248,0.0,0.4,81,0.03,,,0.08,WUHU216HW,2013-02-08 18:00:00,
2013-02-08 13:05:00,40.1,35.1,29.83,SE,135,2.0,2.0,82,0.01,,,0.08,WUHU216HW,2013-02-08 18:05:00,
2013-02-08 13:10:00,39.8,34.5,29.82,ENE,68,0.9,2.5,81,0.01,,,0.08,WUHU216HW,2013-02-08 18:10:00,
2013-02-08 13:15:00,39.6,34.6,29.82,ESE,113,0.2,2.5,82,0.01,,,0.08,WUHU216HW,2013-02-08 18:15:00,
2013-02-08 13:20:00,40.0,34.9,29.81,SE,135,1.1,1.3,82,0.02,,,0.09,WUHU216HW,2013-02-08 18:20:00,
2013-02-08 13:25:00,40.0,34.9,29.81,ESE,113,1.1,1.3,82,0.02,,,0.09,WUHU216HW,2013-02-08 18:25:00,
2013-02-08 13:31:00,40.9,36.0,29.81,ENE,68,0.4,1.8,83,0.02,,,0.09,WUHU216HW,2013-02-08 18:31:00,
2013-02-08 13:36:00,41.2,36.1,29.81,North,0,0.2,1.8,82,0.02,,,0.09,WUHU216HW,2013-02-08 18:36:00,
2013-02-08 13:41:00,41.2,36.1,29.81,North,0,0.2,1.8,82,0.02,,,0.09,WUHU216HW,2013-02-08 18:41:00,
2013-02-08 13:51:00,41.0,34.9,29.82,NNW,338,1.3,1.3,79,0.02,,,0.10,WUHU216HW,2013-02-08 18:51:00,
2013-02-08 13:56:00,41.0,35.3,29.82,NNW,338,1.1,1.6,80,0.02,,,0.10,WUHU216HW,2013-02-08 18:56:00,
2013-02-08 14:01:00,41.2,35.5,29.82,SSW,203,0.2,1.6,80,0.02,,,0.10,WUHU216HW,2013-02-08 19:01:00,
2013-02-08 14:06:00,41.4,35.6,29.81,ESE,113,0.9,1.3,80,0.02,,,0.10,WUHU216HW,2013-02-08 19:06:00,
2013-02-08 14:11:00,41.2,35.1,29.81,WNW,293,0.9,1.8,79,0.02,,,0.10,WUHU216HW,2013-02-08 19:11:00,
2013-02-08 14:16:00,40.7,34.9,29.81,NE,45,0.9,2.0,80,0.02,,,0.10,WUHU216HW,2013-02-08 19:16:00,
2013-02-08 14:21:00,40.7,34.9,29.81,NE,45,0.9,2.0,80,0.02,,,0.10,WUHU216HW,2013-02-08 19:21:00,
2013-02-08 14:30:00,41.8,36.0,29.80,North,0,0.2,0.2,80,0.01,,,0.10,WUHU216HW,2013-02-08 19:30:00,
2013-02-08 14:35:00,41.9,36.2,29.80,SE,135,1.6,1.6,80,0.00,,,0.10,WUHU216HW,2013-02-08 19:35:00,
2013-02-08 14:40:00,42.1,36.4,29.80,WSW,248,0.0,1.6,80,0.00,,,0.10,WUHU216HW,2013-02-08 19:40:00,
2013-02-08 14:45:00,41.6,35.5,29.80,WSW,248,1.8,1.8,79,0.00,,,0.10,WUHU216HW,2013-02-08 19:45:00,
2013-02-08 14:50:00,41.8,36.3,29.80,ESE,113,0.2,1.8,81,0.00,,,0.10,WUHU216HW,2013-02-08 19:50:00,
2013-02-08 14:55:00,41.8,36.3,29.80,ESE,113,0.2,1.1,81,0.00,,,0.10,WUHU216HW,2013-02-08 19:55:00,
2013-02-08 15:00:00,41.8,35.6,29.80,NNE,23,1.3,1.3,79,0.00,,,0.10,WUHU216HW,2013-02-08 20:00:00,
2013-02-08 15:06:00,41.8,35.6,29.80,NNE,23,1.3,1.3,79,0.00,,,0.10,WUHU216HW,2013-02-08 20:06:00,
2013-02-08 15:30:00,42.1,36.4,29.81,NNE,23,0.0,0.0,80,0.00,,,0.10,WUHU216HW,2013-02-08 20:30:00,
2013-02-08 15:35:00,42.1,36.4,29.81,NNE,23,0.0,0.0,80,0.00,,,0.10,WUHU216HW,2013-02-08 20:35:00,
2013-02-08 16:00:00,43.7,37.6,29.82,West,270,1.6,1.6,79,0.00,,,0.10,WUHU216HW,2013-02-08 21:00:00,
2013-02-08 16:05:00,43.7,37.4,29.83,WSW,248,1.8,2.5,78,0.00,,,0.10,WUHU216HW,2013-02-08 21:05:00,
2013-02-08 16:10:00,43.9,37.5,29.83,West,270,2.7,3.1,78,0.00,,,0.10,WUHU216HW,2013-02-08 21:10:00,
2013-02-08 16:15:00,43.9,37.5,29.83,West,270,2.7,3.1,78,0.00,,,0.10,WUHU216HW,2013-02-08 21:15:00,
2013-02-08 16:30:00,43.7,37.4,29.83,WNW,293,1.3,1.3,78,0.00,,,0.10,WUHU216HW,2013-02-08 21:30:00,
2013-02-08 16:35:00,43.7,37.4,29.83,WNW,293,1.3,1.3,78,0.00,,,0.10,WUHU216HW,2013-02-08 21:35:00,
2013-02-08 16:40:00,44.6,34.3,29.84,West,270,4.9,4.9,67,0.00,,,0.10,WUHU216HW,2013-02-08 21:40:00,
2013-02-08 16:45:00,44.3,33.6,29.84,WSW,248,6.0,9.2,66,0.00,,,0.10,WUHU216HW,2013-02-08 21:45:00,
2013-02-08 16:50:00,43.9,32.1,29.84,WNW,293,7.2,10.5,63,0.00,,,0.10,WUHU216HW,2013-02-08 21:50:00,
2013-02-08 16:55:00,43.6,31.8,29.85,WSW,248,4.9,10.5,63,0.00,,,0.10,WUHU216HW,2013-02-08 21:55:00,
2013-02-08 17:00:00,43.2,31.4,29.85,West,270,5.1,9.2,63,0.00,,,0.10,WUHU216HW,2013-02-08 22:00:00,
2013-02-08 17:05:00,43.2,31.4,29.85,West,270,5.1,9.2,63,0.00,,,0.10,WUHU216HW,2013-02-08 22:05:00,
2013-02-08 17:30:00,42.1,30.8,29.86,West,270,4.5,4.5,64,0.00,,,0.10,WUHU216HW,2013-02-08 22:30:00,
2013-02-08 17:35:00,42.1,31.1,29.86,West,270,4.5,6.7,65,0.00,,,0.10,WUHU216HW,2013-02-08 22:35:00,
2013-02-08 17:40:00,42.1,31.1,29.86,West,270,4.5,6.7,65,0.00,,,0.10,WUHU216HW,2013-02-08 22:40:00,
2013-02-08 18:00:00,41.0,30.9,29.87,West,270,3.6,3.6,67,0.00,,,0.10,WUHU216HW,2013-02-08 23:00:00,
2013-02-08 18:05:00,40.9,30.7,29.87,WNW,293,3.4,4.0,67,0.00,,,0.10,WUHU216HW,2013-02-08 23:05:00,
2013-02-08 18:10:00,40.9,30.7,29.87,WNW,293,3.4,4.0,67,0.00,,,0.10,WUHU216HW,2013-02-08 23:10:00,
2013-02-08 18:32:00,40.3,29.4,29.89,WNW,293,5.1,5.1,65,0.00,,,0.10,WUHU216HW,2013-02-08 23:32:00,
2013-02-08 18:37:00,40.1,28.9,29.89,WNW,293,8.9,8.9,64,0.00,,,0.10,WUHU216HW,2013-02-08 23:37:00,
2013-02-08 18:42:00,40.0,28.7,29.90,WSW,248,7.8,8.9,64,0.00,,,0.10,WUHU216HW,2013-02-08 23:42:00,
2013-02-08 18:47:00,40.0,28.4,29.90,WSW,248,4.0,8.9,63,0.00,,,0.10,WUHU216HW,2013-02-08 23:47:00,
2013-02-08 18:52:00,40.0,28.4,29.90,WNW,293,3.4,8.3,63,0.00,,,0.10,WUHU216HW,2013-02-08 23:52:00,
2013-02-08 18:57:00,40.0,28.4,29.90,WNW,293,3.4,8.3,63,0.00,,,0.10,WUHU216HW,2013-02-08 23:57:00,
2013-02-08 19:02:00,39.6,28.0,29.90,WNW,293,1.8,5.1,63,0.00,,,0.10,WUHU216HW,2013-02-09 00:02:00,
2013-02-08 19:07:00,39.6,28.0,29.90,WNW,293,4.3,5.1,63,0.00,,,0.10,WUHU216HW,2013-02-09 00:07:00,
2013-02-08 19:12:00,39.6,28.0,29.90,WNW,293,4.3,4.3,63,0.00,,,0.10,WUHU216HW,2013-02-09 00:12:00,
2013-02-08 19:30:00,39.1,27.5,29.91,WSW,248,3.4,3.4,63,0.00,,,0.10,WUHU216HW,2013-02-09 00:30:00,
2013-02-08 19:35:00,38.9,27.6,29.91,West,270,3.8,7.6,64,0.00,,,0.10,WUHU216HW,2013-02-09 00:35:00,
2013-02-08 19:40:00,38.7,26.7,29.91,WNW,293,4.7,9.8,62,0.00,,,0.10,WUHU216HW,2013-02-09 00:40:00,
2013-02-08 19:45:00,38.5,25.8,29.91,West,270,5.4,13.9,60,0.00,,,0.10,WUHU216HW,2013-02-09 00:45:00,
2013-02-08 19:50:00,38.5,25.8,29.91,West,270,8.5,13.9,60,0.00,,,0.10,WUHU216HW,2013-02-09 00:50:00,
2013-02-08 19:55:00,38.5,25.8,29.91,West,270,8.5,8.5,60,0.00,,,0.10,WUHU216HW,2013-02-09 00:55:00,
2013-02-08 20:00:00,38.7,25.1,29.91,WNW,293,4.9,7.4,58,0.00,,,0.10,WUHU216HW,2013-02-09 01:00:00,
2013-02-08 20:05:00,38.5,25.4,29.92,WSW,248,5.6,9.8,59,0.00,,,0.10,WUHU216HW,2013-02-09 01:05:00,
2013-02-08 20:10:00,38.3,24.8,29.92,West,270,7.4,12.1,58,0.00,,,0.10,WUHU216HW,2013-02-09 01:10:00,
2013-02-08 20:15:00,38.2,24.7,29.92,West,270,5.4,12.1,58,0.00,,,0.10,WUHU216HW,2013-02-09 01:15:00,
2013-02-08 20:20:00,38.0,24.5,29.92,WSW,248,6.9,9.8,58,0.00,,,0.10,WUHU216HW,2013-02-09 01:20:00,
2013-02-08 20:25:00,38.0,24.5,29.92,WSW,248,6.9,9.8,58,0.00,,,0.10,WUHU216HW,2013-02-09 01:25:00,
2013-02-08 20:30:00,37.8,24.3,29.92,WNW,293,9.6,9.6,58,0.00,,,0.10,WUHU216HW,2013-02-09 01:30:00,
2013-02-08 20:36:00,37.6,24.1,29.92,WNW,293,5.1,9.6,58,0.00,,,0.10,WUHU216HW,2013-02-09 01:36:00,
2013-02-08 20:41:00,37.6,24.1,29.92,WNW,293,5.1,9.2,58,0.00,,,0.10,WUHU216HW,2013-02-09 01:41:00,
2013-02-08 20:48:00,37.1,24.5,29.92,NW,315,4.5,4.5,60,0.00,,,0.10,WUHU216HW,2013-02-09 01:48:00,
2013-02-08 20:53:00,36.7,24.2,29.92,WNW,293,5.6,6.7,60,0.00,,,0.10,WUHU216HW,2013-02-09 01:53:00,
2013-02-08 20:59:00,36.7,24.2,29.92,NW,315,4.7,6.9,60,0.00,,,0.10,WUHU216HW,2013-02-09 01:59:00,
2013-02-08 21:04:00,36.7,24.2,29.93,WNW,293,4.0,6.9,60,0.00,,,0.10,WUHU216HW,2013-02-09 02:04:00,
2013-02-08 21:09:00,36.7,24.2,29.93,WNW,293,4.0,5.1,60,0.00,,,0.10,WUHU216HW,2013-02-09 02:09:00,
2013-02-08 21:30:00,36.5,23.6,29.95,WNW,293,3.4,3.4,59,0.00,,,0.10,WUHU216HW,2013-02-09 02:30:00,
2013-02-08 21:35:00,36.5,23.6,29.94,NW,315,2.2,3.4,59,0.00,,,0.10,WUHU216HW,2013-02-09 02:35:00,
2013-02-08 22:00:00,35.8,23.8,29.96,North,0,4.9,4.9,61,0.00,,,0.10,WUHU216HW,2013-02-09 03:00:00,
2013-02-08 22:05:00,36.0,23.6,29.96,WNW,293,6.3,9.2,60,0.00,,,0.10,WUHU216HW,2013-02-09 03:05:00,
2013-02-08 22:10:00,36.0,23.6,29.96,WNW,293,6.3,9.2,60,0.00,,,0.10,WUHU216HW,2013-02-09 03:10:00,
2013-02-08 22:30:00,36.2,23.7,29.98,WSW,248,0.7,0.7,60,0.00,,,0.10,WUHU216HW,2013-02-09 03:30:00,
2013-02-08 22:35:00,35.8,23.8,29.99,WSW,248,2.5,2.9,61,0.00,,,0.10,WUHU216HW,2013-02-09 03:35:00,
2013-02-08 22:40:00,35.6,23.6,29.99,WSW,248,2.0,2.9,61,0.00,,,0.10,WUHU216HW,2013-02-09 03:40:00,
2013-02-08 22:45:00,35.6,23.6,29.99,WSW,248,2.0,2.5,61,0.00,,,0.10,WUHU216HW,2013-02-09 03:45:00,
2013-02-08 23:00:00,35.8,23.4,30.00,WNW,293,2.5,2.5,60,0.00,,,0.10,WUHU216HW,2013-02-09 04:00:00,
2013-02-08 23:05:00,35.5,23.4,30.00,NW,315,4.0,5.4,61,0.00,,,0.10,WUHU216HW,2013-02-09 04:05:00,
2013-02-08 23:10:00,35.3,23.2,30.00,West,270,4.9,5.4,61,0.00,,,0.10,WUHU216HW,2013-02-09 04:10:00,
2013-02-08 23:15:00,34.9,23.2,30.00,West,270,1.3,4.9,62,0.00,,,0.10,WUHU216HW,2013-02-09 04:15:00,
2013-02-08 23:20:00,34.9,23.2,30.00,West,270,2.0,4.9,62,0.00,,,0.10,WUHU216HW,2013-02-09 04:20:00,
2013-02-08 23:25:00,34.9,23.2,30.00,West,270,2.0,2.0,62,0.00,,,0.10,WUHU216HW,2013-02-09 04:25:00,
2013-02-08 23:30:00,34.7,23.0,30.01,West,270,2.9,2.9,62,0.00,,,0.10,WUHU216HW,2013-02-09 04:30:00,
2013-02-08 23:35:00,34.9,23.2,30.01,WNW,293,4.7,5.1,62,0.00,,,0.10,WUHU216HW,2013-02-09 04:35:00,
2013-02-08 23:40:00,34.9,23.2,30.01,WNW,293,4.0,5.1,62,0.00,,,0.10,WUHU216HW,2013-02-09 04:40:00,
2013-02-08 23:45:00,34.9,23.2,30.01,WNW,293,4.0,4.7,62,0.00,,,0.10,WUHU216HW,2013-02-09 04:45:00,
2013-02-08 23:50:00,34.9,23.2,30.01,West,270,2.7,2.7,62,0.00,,,0.10,WUHU216HW,2013-02-09 04:50:00,
2013-02-08 23:55:00,34.9,23.2,30.01,West,270,2.7,2.7,62,0.00,,,0.10,WUHU216HW,2013-02-09 04:55:00,